Bei Facebook empfehlenBei Twitter postenGoogle plusPinterest

Das Wetter im Erzgebirge am 18.01.2015

Wetter und Klima am 18.01.2015 Holzhau im Erzgebirge (630m ü.NN)
Letzte gemessene Temperatur und Uhrzeit der Messung23:45:00 Uhr-3.40 °C
Temperatur (Maximum / Höchstwert) und Uhrzeit der Messung12:45:00 Uhr2.50 °C
Temperatur (Minimum / Tiefstwert) und Uhrzeit der Messung07:30:00-4.70 °C
Errechneter Absolutwert der Temperaturschwankungen zwischen Tmin und Tmax des Tages7.20 K
Errechnete Tagesmitteltemperatur-1.54167 °C
Gesamt - Niederschlag des Tages (in flüssiger Form)0.00 Liter / m²
Luftdruck (Maximum / Höchstwert) und Zeitpunkt der Messung12:00:00 Uhr1014.50 hPa
Luftdruck (Minimum / Tiefstwert) und Zeitpunkt der Messung23:45:00 Uhr1012.20 hPa
Errechneter Absolutwert der Luftdruckschwankungen des Tages2.30 hPa
Höchste gemessene Windgeschwindigkeit und Uhrzeit der Messung23:45:00 Uhr0.00 km/h
Errechnete Windhäufigkeit in Relation zu den Messwerten des Tages0.00000 %
Niedrigste Windkühle (Windchill) und Zeitpunkt der Messung07:30:00 Uhr-4.70 °C
Taupunkt (Maximum / Höchstwert) und Uhrzeit der Messung12:45:00 Uhr1.00 °C
Taupunkt (Minimum / Tiefstwert) und Uhrzeit der Messung07:30:00-5.90 °C
Anzahl der automatisch eingelesenen Messwerte 96

Detaillierte Wetter- und Klima- Messwerte für den 18.01.2015 in Holzhau im Erzgebirge (630m ü.NN)
ZeitTemperaturLuftdruckRel. LuftfeuchteWindWindrichtungWindchillTaupunktNiederschlag l/m²
23:45:00-3.40 °C1012.20 hPa92.00 %-4.60 °C 
23:30:00-3.10 °C1012.30 hPa92.00 %-4.30 °C 
23:15:00-2.90 °C1012.60 hPa92.00 %-4.10 °C 
23:00:00-2.70 °C1012.70 hPa92.00 %-3.90 °C 
22:45:00-2.70 °C1012.90 hPa92.00 %-3.90 °C 
22:30:00-2.50 °C1012.90 hPa92.00 %-3.80 °C 
22:15:00-2.40 °C1012.90 hPa92.00 %-3.70 °C 
22:00:00-2.80 °C1012.80 hPa92.00 %-4.00 °C 
21:45:00-2.70 °C1012.80 hPa92.00 %-3.90 °C 
21:30:00-2.60 °C1012.90 hPa92.00 %-3.90 °C 
21:15:00-2.60 °C1013.00 hPa92.00 %-3.90 °C 
21:00:00-2.70 °C1012.90 hPa92.00 %-3.90 °C 
20:45:00-2.80 °C1012.80 hPa92.00 %-4.00 °C 
20:30:00-2.70 °C1012.80 hPa92.00 %-3.90 °C 
20:15:00-2.90 °C1012.80 hPa92.00 %-4.10 °C 
20:00:00-3.00 °C1012.90 hPa92.00 %-4.20 °C 
19:45:00-3.30 °C1012.80 hPa91.00 %-4.70 °C 
19:30:00-3.10 °C1012.80 hPa91.00 %-4.50 °C 
19:15:00-2.80 °C1012.70 hPa91.00 %-4.20 °C 
19:00:00-3.10 °C1012.80 hPa91.00 %-4.50 °C 
18:45:00-3.50 °C1012.90 hPa90.00 %-5.10 °C 
18:30:00-3.30 °C1012.70 hPa90.00 %-4.90 °C 
18:15:00-3.10 °C1012.70 hPa90.00 %-4.70 °C 
18:00:00-2.90 °C1012.70 hPa90.00 %-4.50 °C 
17:45:00-2.60 °C1012.60 hPa90.00 %-4.20 °C 
17:30:00-2.40 °C1012.60 hPa89.00 %-4.10 °C 
17:15:00-2.10 °C1012.70 hPa89.00 %-3.90 °C 
17:00:00-1.40 °C1012.70 hPa89.00 %-3.20 °C 
16:45:00-0.70 °C1012.70 hPa89.00 %-2.50 °C 
16:30:00-0.40 °C1012.90 hPa89.00 %-2.20 °C 
16:15:000.10 °C1012.90 hPa89.00 %-1.50 °C 
16:00:000.40 °C1012.90 hPa89.00 %-1.20 °C 
15:45:000.40 °C1013.10 hPa89.00 %-1.20 °C 
15:30:000.50 °C1013.00 hPa89.00 %-1.10 °C 
15:15:000.80 °C1012.90 hPa89.00 %-0.80 °C 
15:00:000.80 °C1013.00 hPa89.00 %-0.80 °C 
14:45:000.60 °C1013.10 hPa89.00 %-1.00 °C 
14:30:000.80 °C1013.30 hPa89.00 %-0.80 °C 
14:15:000.90 °C1013.20 hPa88.00 %-0.90 °C 
14:00:001.20 °C1013.50 hPa89.00 %-0.40 °C 
13:45:001.40 °C1013.40 hPa89.00 %-0.20 °C 
13:30:001.40 °C1013.70 hPa89.00 %-0.20 °C 
13:15:001.60 °C1013.80 hPa89.00 %0.00 °C 
13:00:001.80 °C1014.20 hPa89.00 %0.20 °C 
12:45:002.50 °C1014.20 hPa90.00 %1.00 °C 
12:30:002.20 °C1014.30 hPa90.00 %0.70 °C 
12:15:002.10 °C1014.30 hPa92.00 %0.90 °C 
12:00:001.90 °C1014.50 hPa93.00 %0.90 °C 
11:45:001.60 °C1014.50 hPa93.00 %0.60 °C 
11:30:001.30 °C1014.40 hPa93.00 %0.30 °C 
11:15:000.90 °C1014.50 hPa93.00 %-0.10 °C 
11:00:000.30 °C1014.40 hPa94.00 %-0.50 °C 
10:45:00-0.10 °C1014.20 hPa94.00 %-1.00 °C 
10:30:00-0.20 °C1014.40 hPa94.00 %-1.10 °C 
10:15:00-0.70 °C1014.30 hPa93.00 %-1.80 °C 
10:00:00-1.90 °C1014.40 hPa93.00 %-3.00 °C 
09:45:00-2.40 °C1014.30 hPa93.00 %-3.50 °C 
09:30:00-2.40 °C1014.20 hPa93.00 %-3.50 °C 
09:15:00-2.60 °C1014.10 hPa93.00 %-3.70 °C 
09:00:00-2.70 °C1014.00 hPa93.00 %-3.80 °C 
08:45:00-3.10 °C1014.20 hPa93.00 %-4.20 °C 
08:30:00-3.50 °C1014.30 hPa93.00 %-4.60 °C 
08:15:00-3.60 °C1014.10 hPa93.00 %-4.70 °C 
08:00:00-3.80 °C1014.20 hPa93.00 %-4.90 °C 
07:45:00-4.60 °C1014.10 hPa92.00 %-5.80 °C 
07:30:00-4.70 °C1014.10 hPa92.00 %-5.90 °C 
07:15:00-4.40 °C1013.90 hPa92.00 %-5.60 °C 
07:00:00-4.10 °C1013.90 hPa93.00 %-5.20 °C 
06:45:00-4.20 °C1013.90 hPa92.00 %-5.40 °C 
06:30:00-4.10 °C1013.70 hPa93.00 %-5.20 °C 
06:15:00-3.80 °C1013.70 hPa93.00 %-4.90 °C 
06:00:00-3.50 °C1013.70 hPa93.00 %-4.60 °C 
05:45:00-3.60 °C1013.80 hPa93.00 %-4.70 °C 
05:30:00-3.60 °C1013.70 hPa93.00 %-4.70 °C 
05:15:00-3.10 °C1013.70 hPa93.00 %-4.20 °C 
05:00:00-2.70 °C1013.80 hPa93.00 %-3.80 °C 
04:45:00-2.30 °C1013.70 hPa93.00 %-3.40 °C 
04:30:00-2.10 °C1013.80 hPa93.00 %-3.20 °C 
04:15:00-1.60 °C1013.70 hPa93.00 %-2.70 °C 
04:00:00-1.20 °C1013.90 hPa93.00 %-2.30 °C 
03:45:00-0.70 °C1014.10 hPa93.00 %-1.80 °C 
03:30:00-0.60 °C1013.80 hPa94.00 %-1.50 °C 
03:15:00-0.60 °C1013.80 hPa94.00 %-1.50 °C 
03:00:00-0.60 °C1013.80 hPa94.00 %-1.50 °C 
02:45:00-0.70 °C1014.00 hPa93.00 %-1.80 °C 
02:30:00-0.70 °C1014.00 hPa93.00 %-1.80 °C 
02:15:00-0.70 °C1014.00 hPa93.00 %-1.80 °C 
02:00:00-0.70 °C1013.80 hPa93.00 %-1.80 °C 
01:45:00-0.80 °C1013.70 hPa93.00 %-1.90 °C 
01:30:00-0.90 °C1013.80 hPa93.00 %-2.00 °C 
01:15:00-1.00 °C1014.00 hPa93.00 %-2.10 °C 
01:00:00-1.10 °C1014.00 hPa93.00 %-2.20 °C 
00:45:00-1.10 °C1014.20 hPa93.00 %-2.20 °C 
00:30:00-1.10 °C1014.20 hPa93.00 %-2.20 °C 
00:15:00-1.10 °C1014.10 hPa93.00 %-2.20 °C 
00:00:00-1.30 °C1014.20 hPa93.00 %-2.40 °C 

Permanenter Link zu dieser Seite: Wetter im Erzgebirge am 18.01.2015
Performance-Info: Die Erstellung der Seite / Statistik(en) / Tabelle(n) erforderte 5 Datenbankserver-Abfrage(n) und dauerte 123 Millisekunden. (Dieser Messwert ist von der Gesamt-Auslastung des Servers abhängig.)
Erzgebirge - Wetter | Erzgebirge - Wetter (Mobilgeräte) | Komplette Klimadatenbank